When you browse on this site, cookies collect data to enhance your experience and personalize the content and advertising you see.
Visit our Privacy Policy to learn more. By continuing to use the site, you agree to this use of cookies and data.
  • In United Kingdom
  • List of Countries
  • For 7 days
  • Water Temperature
  • Satellite Maps
  • Weather Map
  • Weather Widgets
  • user-avatar
    Login

    Hourly Weather Brasília

    Today, 21 January, Monday

    Time Temperature Precipitation Wind Pressure Humidity
    00:00 +22°C° 0 mm 1 mps 666 mmHg 66%
    01:00 +22°C° 0 mm 1 mps 666 mmHg 67%
    02:00 +22°C° 0 mm 1 mps 666 mmHg 67%
    03:00 +21°C° 0 mm 1 mps 666 mmHg 69%
    04:00 +21°C° 0 mm 1 mps 666 mmHg 70%
    05:00 +21°C° 0 mm 1 mps 666 mmHg 71%
    06:00 +20°C° 0 mm 1 mps 666 mmHg 72%
    07:00 +23°C° 0 mm 1 mps 667 mmHg 68%
    08:00 +25°C° 0 mm 1 mps 668 mmHg 64%
    09:00 +28°C° 0 mm 1 mps 669 mmHg 57%
    10:00 +29°C° 0 mm 2 mps 669 mmHg 53%
    11:00 +30°C° 0 mm 2 mps 668 mmHg 48%
    12:00 +31°C° 0 mm 3 mps 668 mmHg 44%
    13:00 +31°C° 0 mm 3 mps 668 mmHg 43%
    14:00 +31°C° 0 mm 2 mps 668 mmHg 43%
    15:00 +32°C° 0 mm 2 mps 667 mmHg 43%
    16:00 +30°C° 0 mm 2 mps 667 mmHg 47%
    17:00 +29°C° 0 mm 2 mps 667 mmHg 51%
    18:00 +28°C° 0 mm 2 mps 666 mmHg 55%
    19:00 +27°C° 0 mm 2 mps 666 mmHg 56%
    20:00 +25°C° 0 mm 2 mps 667 mmHg 58%
    21:00 +24°C° 0 mm 2 mps 667 mmHg 59%
    22:00 +24°C° 0 mm 2 mps 667 mmHg 62%
    23:00 +23°C° 0 mm 2 mps 667 mmHg 65%

    Tomorrow, 22 January, Tuesday

    Time Temperature Precipitation Wind Pressure Humidity
    00:00 +23°C° 0 mm 2 mps 667 mmHg 68%
    01:00 +21°C° 0 mm 2 mps 667 mmHg 69%
    02:00 +21°C° 0 mm 2 mps 667 mmHg 70%
    03:00 +21°C° 0 mm 2 mps 666 mmHg 72%
    04:00 +21°C° 0 mm 2 mps 666 mmHg 71%
    05:00 +20°C° 0 mm 2 mps 666 mmHg 70%
    06:00 +21°C° 0 mm 1 mps 666 mmHg 69%
    07:00 +23°C° 0 mm 2 mps 667 mmHg 64%
    08:00 +25°C° 0 mm 3 mps 668 mmHg 59%
    09:00 +27°C° 0 mm 3 mps 669 mmHg 54%
    10:00 +28°C° 0 mm 3 mps 669 mmHg 51%
    11:00 +29°C° 0 mm 3 mps 669 mmHg 48%
    12:00 +31°C° 0 mm 2 mps 669 mmHg 45%
    13:00 +30°C° 0 mm 2 mps 668 mmHg 47%
    14:00 +30°C° 0 mm 2 mps 667 mmHg 49%
    15:00 +30°C° 0 mm 2 mps 667 mmHg 52%
    16:00 +29°C° 0.2 mm 2 mps 666 mmHg 57%
    17:00 +28°C° 0.2 mm 2 mps 666 mmHg 62%
    18:00 +27°C° 0.2 mm 2 mps 665 mmHg 67%
    19:00 +26°C° 0.3 mm 2 mps 666 mmHg 71%
    20:00 +24°C° 0.3 mm 2 mps 666 mmHg 76%
    21:00 +23°C° 0.3 mm 2 mps 666 mmHg 80%
    22:00 +23°C° 0.8 mm 2 mps 666 mmHg 83%
    23:00 +23°C° 0.8 mm 2 mps 667 mmHg 85%

    Day after tomorrow, 23 January, Wednesday

    Time Temperature Precipitation Wind Pressure Humidity
    00:00 +21°C° 0.8 mm 2 mps 667 mmHg 87%
    01:00 +21°C° 0.3 mm 2 mps 666 mmHg 87%
    02:00 +21°C° 0.3 mm 2 mps 666 mmHg 87%
    03:00 +21°C° 0.3 mm 1 mps 665 mmHg 87%
    04:00 +20°C° 0 mm 2 mps 665 mmHg 87%
    05:00 +19°C° 0 mm 2 mps 665 mmHg 88%
    06:00 +19°C° 0 mm 2 mps 665 mmHg 88%
    07:00 +21°C° 0 mm 2 mps 666 mmHg 81%
    08:00 +24°C° 0 mm 3 mps 667 mmHg 75%
    09:00 +26°C° 0 mm 4 mps 668 mmHg 68%
    10:00 +27°C° 0 mm 4 mps 668 mmHg 60%
    11:00 +29°C° 0 mm 3 mps 669 mmHg 53%
    12:00 +30°C° 0 mm 3 mps 669 mmHg 46%
    13:00 +30°C° 0 mm 3 mps 668 mmHg 45%
    14:00 +30°C° 0 mm 3 mps 667 mmHg 44%
    15:00 +31°C° 0 mm 3 mps 667 mmHg 43%
    16:00 +29°C° 0 mm 3 mps 666 mmHg 49%
    17:00 +28°C° 0 mm 3 mps 666 mmHg 55%
    18:00 +27°C° 0 mm 2 mps 665 mmHg 60%
    19:00 +26°C° 0 mm 2 mps 665 mmHg 62%
    20:00 +25°C° 0 mm 2 mps 666 mmHg 64%
    21:00 +23°C° 0 mm 2 mps 666 mmHg 67%
    22:00 +23°C° 0 mm 2 mps 666 mmHg 68%
    23:00 +23°C° 0 mm 2 mps 666 mmHg 69%

    24 January, Thursday

    Time Temperature Precipitation Wind Pressure Humidity
    00:00 +21°C° 0 mm 2 mps 666 mmHg 70%
    01:00 +21°C° 0 mm 2 mps 666 mmHg 71%
    02:00 +20°C° 0 mm 2 mps 665 mmHg 72%
    03:00 +20°C° 0 mm 2 mps 665 mmHg 73%
    04:00 +20°C° 0 mm 2 mps 665 mmHg 73%
    05:00 +20°C° 0 mm 2 mps 665 mmHg 73%
    06:00 +19°C° 0 mm 2 mps 665 mmHg 73%
    07:00 +21°C° 0 mm 3 mps 666 mmHg 69%
    08:00 +24°C° 0 mm 3 mps 667 mmHg 65%
    09:00 +25°C° 0 mm 4 mps 667 mmHg 60%
    10:00 +27°C° 0 mm 4 mps 668 mmHg 55%
    11:00 +29°C° 0 mm 4 mps 668 mmHg 49%
    12:00 +30°C° 0 mm 3 mps 668 mmHg 44%
    13:00 +30°C° 0 mm 3 mps 667 mmHg 42%
    14:00 +31°C° 0 mm 3 mps 667 mmHg 40%
    15:00 +31°C° 0 mm 2 mps 666 mmHg 38%
    16:00 +30°C° 0 mm 2 mps 666 mmHg 44%
    17:00 +29°C° 0 mm 2 mps 665 mmHg 49%
    18:00 +28°C° 0 mm 2 mps 665 mmHg 55%
    19:00 +26°C° 0 mm 2 mps 665 mmHg 58%
    20:00 +25°C° 0 mm 2 mps 666 mmHg 60%
    21:00 +24°C° 0 mm 2 mps 666 mmHg 63%
    22:00 +23°C° 0 mm 2 mps 666 mmHg 66%
    23:00 +23°C° 0 mm 2 mps 666 mmHg 69%

    25 January, Friday

    Time Temperature Precipitation Wind Pressure Humidity
    00:00 +21°C° 0 mm 2 mps 666 mmHg 72%
    01:00 +21°C° 0 mm 2 mps 665 mmHg 73%
    02:00 +21°C° 0 mm 2 mps 665 mmHg 74%
    03:00 +21°C° 0 mm 2 mps 664 mmHg 76%
    04:00 +20°C° 0 mm 2 mps 664 mmHg 75%
    05:00 +20°C° 0 mm 2 mps 665 mmHg 75%
    06:00 +20°C° 0 mm 2 mps 665 mmHg 75%
    07:00 +23°C° 0 mm 2 mps 665 mmHg 70%
    08:00 +24°C° 0 mm 3 mps 666 mmHg 65%
    09:00 +26°C° 0 mm 4 mps 667 mmHg 60%
    10:00 +28°C° 0 mm 3 mps 667 mmHg 55%
    11:00 +29°C° 0 mm 3 mps 667 mmHg 50%
    12:00 +30°C° 0 mm 2 mps 667 mmHg 44%
    13:00 +30°C° 0 mm 2 mps 666 mmHg 48%
    14:00 +29°C° 0 mm 2 mps 665 mmHg 52%
    15:00 +28°C° 0 mm 1 mps 664 mmHg 55%
    16:00 +27°C° 1 mm 1 mps 664 mmHg 60%
    17:00 +26°C° 1 mm 1 mps 664 mmHg 65%
    18:00 +25°C° 1 mm 1 mps 664 mmHg 71%
    19:00 +24°C° 0.6 mm 1 mps 664 mmHg 72%
    20:00 +24°C° 0.6 mm 1 mps 664 mmHg 74%
    21:00 +23°C° 0.6 mm 1 mps 665 mmHg 76%
    22:00 +22°C° 1.1 mm 1 mps 665 mmHg 79%
    23:00 +22°C° 1.1 mm 1 mps 665 mmHg 82%

    26 January, Saturday

    Time Temperature Precipitation Wind Pressure Humidity
    00:00 +22°C° 1.1 mm 1 mps 665 mmHg 84%
    01:00 +21°C° 1.4 mm 1 mps 665 mmHg 86%
    02:00 +20°C° 1.4 mm 2 mps 664 mmHg 88%
    03:00 +19°C° 1.4 mm 2 mps 664 mmHg 90%
    04:00 +19°C° 0.2 mm 2 mps 664 mmHg 91%
    05:00 +19°C° 0.2 mm 2 mps 665 mmHg 91%
    06:00 +19°C° 0.2 mm 2 mps 665 mmHg 91%
    07:00 +20°C° 0 mm 3 mps 665 mmHg 87%
    08:00 +21°C° 0 mm 3 mps 666 mmHg 82%
    09:00 +23°C° 0 mm 4 mps 667 mmHg 77%
    10:00 +25°C° 0.5 mm 4 mps 667 mmHg 72%
    11:00 +26°C° 0.5 mm 4 mps 667 mmHg 68%
    12:00 +27°C° 0.5 mm 4 mps 667 mmHg 63%
    13:00 +26°C° 2.2 mm 3 mps 666 mmHg 69%
    14:00 +25°C° 2.2 mm 2 mps 665 mmHg 75%
    15:00 +24°C° 2.2 mm 2 mps 665 mmHg 81%
    16:00 +23°C° 2.8 mm 2 mps 665 mmHg 84%
    17:00 +21°C° 2.8 mm 2 mps 665 mmHg 87%
    18:00 +20°C° 2.8 mm 2 mps 665 mmHg 91%
    19:00 +20°C° 1.3 mm 2 mps 665 mmHg 91%
    20:00 +19°C° 1.3 mm 3 mps 666 mmHg 92%
    21:00 +19°C° 1.3 mm 3 mps 666 mmHg 93%
    22:00 +19°C° 1.1 mm 3 mps 666 mmHg 93%
    23:00 +19°C° 1.1 mm 4 mps 666 mmHg 93%
    Show more